Weather in Poletayevo

Russia / Tambov Oblast     51°53′10″N   41°05′30″E
temp.,
°C
wind,
m/s
gust,
m/s
humid.,
%
clouds,
%
prec.,
mm/h
press.,
hPa
HPBL,
m
5 march, fri
fri500:000wsw51097100 0.1 1003541
03:000wsw61198100 0.3 1003517
06:000wnw61094100 0.2 1004644
09:00−3nw599599 0.2 1006509
12:00−2nnw359185 0.1 1009466
15:00−1nw349080 0.1 1012523
18:00−5wsw229211 0.0 101321
21:00−6w229337 0.0 101521
6 march, sat
sat600:00−8nw129587 0.0 101621
03:00−8nne129393 0.0 101721
06:00−8e1292100 0.0 101621
09:00−7e2293100 0.0 101685
12:00−5ene1289100 0.0 1015242
15:00−4ne1289100 0.0 1014321
18:00−7ne129496 0.0 101421
21:00−6nnw229798 0.7 101653
7 march, sun
sun700:00−8nnw3796100 0.6 1016195
03:00−11wnw349691 0.6 101881
06:00−12wsw47930 0.0 1018113
09:00−8wsw612886 0.0 1016436
12:00−4sw8147997 0.0 10131074
15:00−3sw9167698 0.0 10091124
18:00−3sw101979100 0.0 10041157
21:00−2wsw111894100 1.0 10041140
8 march, mon
mon800:00−7wsw4884100 0.6 1006173
03:00−7sw5117982 0.6 1006238
06:00−6sw71479100 0.0 1004365
09:00−5sw71291100 0.0 1003500
12:00−2w81380100 0.3 10031544
15:00−5wnw9136983 0.5 10051272
18:00−9wnw614830 0.0 1009444
21:00−12w49880 0.0 1012161
9 march, tue
tue900:00−13w47890 0.0 101390
03:00−13w34900 0.0 101334
06:00−15wsw23910 0.0 101320
09:00−12wnw229150 0.0 101497
12:00−9nnw2388100 0.0 1014322
15:00−8n3590100 0.1 1014529
18:00−11nnw3792100 0.0 1016252
21:00−14nnw5119494 0.0 1018284